Regional Weather Roundup
Issued by NWS

Home | Current Version | Previous Version | Text Only | Print | Product List | Glossary Off
Versions: 1 2 3 4 5 6 7 8 9 10 11 12 13 14 15 16 17 18 19 20 21 22 23 24 25 26 27 28 29 30 31 32 33 34 35 36 37 38 39 40 41 42 43 44 45 46 47 48 49 50

642
ASUS43 KLMK 191302
RWRKY
KENTUCKY REGIONAL WEATHER ROUNDUP
NATIONAL WEATHER SERVICE LOUISVILLE KY
900 AM EDT SAT AUG 19 2017

NOTE "FAIR" INDICATES FEW OR NO CLOUDS BELOW 12,000 FEET
WITH NO SIGNIFICANT WEATHER AND/OR OBSTRUCTIONS TO VISIBILITY.

KYZ001>023-026-027-061>063-070>075-191400-
WESTERN AND SOUTH CENTRAL KENTUCKY

CITY           SKY/WX    TMP DP  RH WIND       PRES   REMARKS
PADUCAH        MOSUNNY   74  65  73 SW5       29.95S
HENDERSON      TSTM      70  68  93 W7        29.98R
OWENSBORO      MOSUNNY   74  69  85 S7        29.97S
HOPKINSVILLE   SUNNY     76  68  76 S5        29.99S
BOWLING GREEN  MOSUNNY   74  69  85 S5        30.01R
GLASGOW        SUNNY     71  68  92 W3        30.02R
$$

KYZ024-025-028>034-038-045-046-053-191400-
NORTH CENTRAL KENTUCKY

CITY           SKY/WX    TMP DP  RH WIND       PRES   REMARKS
LOUISVILLE/SDF CLOUDY    73  67  81 SE8       29.96F
LOUISVILLE/LOU CLOUDY    73  69  87 S7        29.97S
FORT KNOX      CLOUDY    72  66  83 S5        29.98R
$$

KYZ035>037-039>044-047>052-055>060-089>105-191400-
NORTHEAST KENTUCKY

CITY           SKY/WX    TMP DP  RH WIND       PRES   REMARKS
LEXINGTON      MOSUNNY   71  65  81 S5        30.02R
COVINGTON      PTSUNNY   70  68  93 SW8       29.96F
FRANKFORT      SUNNY     72  65  78 S6        29.99R
$$

KYZ054-064>069-076>088-106>120-191400-
SOUTHEAST KENTUCKY

CITY           SKY/WX    TMP DP  RH WIND       PRES   REMARKS
JACKSON        CLOUDY    66  64  93 CALM      30.04F
LONDON         CLOUDY    67  64  90 CALM      30.05R
SOMERSET       NOT AVBL
MIDDLESBORO    CLOUDY    64  64 100 CALM      30.08R FOG
MONTICELLO     CLOUDY    69  67  93 W10       30.05S
$$





USA.gov is the U.S. government's official web portal to all federal, state and local government web resources and services.